Location: ???????
(55.9142°N, 37.8256°E)
Time: 05:56:22
(UTC+00:00)

Sich 1 - Visible Passes

Search period start: 16 July 2024 00:00
Search period end: 26 July 2024 00:00
Orbit: 583 x 612 km, 82.5° (Epoch: 15 July)

Date Brightness Start Highest point End Pass type
(mag) Time Alt. Az. Time Alt. Az. Time Alt. Az.
19 Jul 5.8 23:34:09 10° ESE 23:36:04 13° E 23:37:59 10° NE visible
20 Jul 5.5 23:43:29 10° SE 23:46:22 18° E 23:49:16 10° NE visible
21 Jul 5.0 23:53:14 10° SE 23:56:44 25° E 00:00:13 10° NNE visible
23 Jul 4.5 00:03:14 10° SSE 00:07:07 35° E 00:11:00 10° NNE visible
24 Jul 3.8 00:13:24 10° S 00:17:32 50° E 00:21:40 10° NNE visible
24 Jul 5.7 22:50:06 10° E 22:51:23 11° ENE 22:52:40 10° ENE visible
25 Jul 3.2 00:23:45 10° S 00:27:59 73° E 00:32:15 10° NNE visible
25 Jul 5.5 22:59:03 10° ESE 23:01:38 16° E 23:04:13 10° NE visible
